N440WF 9Z3-A79

Flight info

Callsign N440WF
Flight time N/A
Altitude 2000
Route RWO G2 FIGAN
Aircraft C185/L-G/S

Departure

Time 2026-05-04 04:53
Airport Kodiak /Lilly Lake/ Seaplane Base (9Z3)

Arrival

Time N/A
Airport Chignik Lake Airport (A79)
Time Latitude Longitude Altitude Speed Heading
2026-05-04 04:27 57.80737 -152.37219 158 ft 0 kts 125°
2026-05-04 04:29 57.80670 -152.37282 154 ft 40 kts 230°
2026-05-04 04:29 57.80337 -152.37694 373 ft 75 kts 202°
2026-05-04 04:29 57.80091 -152.38390 542 ft 52 kts 308°
2026-05-04 04:30 57.80374 -152.37890 139 ft 58 kts 47°
2026-05-04 04:30 57.80521 -152.37540 140 ft 12 kts 195°
2026-05-04 04:30 57.80542 -152.37634 140 ft 10 kts 303°
2026-05-04 04:30 57.80550 -152.37661 141 ft 0 kts 198°
2026-05-04 04:31 57.80549 -152.37662 140 ft 0 kts 200°
2026-05-04 04:36 57.80536 -152.37668 139 ft 9 kts 165°
2026-05-04 04:36 57.80586 -152.37474 146 ft 41 kts 68°
2026-05-04 04:36 57.80780 -152.37035 165 ft 25 kts 43°
2026-05-04 04:37 57.80830 -152.36885 167 ft 0 kts 315°
2026-05-04 04:51 57.80817 -152.36967 166 ft 8 kts 235°
2026-05-04 04:51 57.80813 -152.36978 165 ft 0 kts 227°
2026-05-04 04:52 57.80778 -152.37034 165 ft 36 kts 231°
2026-05-04 04:52 57.80615 -152.37439 167 ft 50 kts 264°
2026-05-04 04:52 57.80334 -152.38171 408 ft 93 kts 232°
2026-05-04 04:52 57.79726 -152.39159 454 ft 136 kts 203°
2026-05-04 04:53 57.78718 -152.39224 479 ft 156 kts 160°
2026-05-04 04:53 57.78029 -152.38070 735 ft 110 kts 111°
2026-05-04 04:53 57.77901 -152.36787 1039 ft 110 kts 96°
2026-05-04 04:53 57.77782 -152.35289 1292 ft 117 kts 108°
2026-05-04 04:54 57.77261 -152.34174 1544 ft 117 kts 153°
2026-05-04 04:54 57.76463 -152.34110 1797 ft 118 kts 200°
2026-05-04 04:54 57.75877 -152.35154 2049 ft 120 kts 246°
2026-05-04 04:54 57.75742 -152.36667 2300 ft 119 kts 265°
2026-05-04 04:55 57.75666 -152.38215 2544 ft 118 kts 258°
2026-05-04 04:55 57.75490 -152.39704 2794 ft 115 kts 250°
2026-05-04 04:55 57.75244 -152.41098 3045 ft 111 kts 245°
2026-05-04 04:55 57.74962 -152.42434 3295 ft 109 kts 242°
2026-05-04 04:56 57.74662 -152.43721 3546 ft 107 kts 240°
2026-05-04 04:56 57.74353 -152.44996 3800 ft 112 kts 239°
2026-05-04 04:56 57.74007 -152.46372 4055 ft 120 kts 239°
2026-05-04 04:56 57.73651 -152.47795 4304 ft 124 kts 239°
2026-05-04 04:57 57.73299 -152.49207 4548 ft 99 kts 239°
2026-05-04 04:57 57.73096 -152.50120 4598 ft 66 kts 235°
2026-05-04 04:57 57.72879 -152.50940 4410 ft 74 kts 232°
2026-05-04 04:57 57.72643 -152.51777 4559 ft 78 kts 233°
2026-05-04 04:58 57.72366 -152.52785 4838 ft 95 kts 235°
2026-05-04 04:58 57.72059 -152.53975 5101 ft 110 kts 237°
2026-05-04 04:58 57.71727 -152.55317 5353 ft 116 kts 238°
2026-05-04 04:58 57.71388 -152.56706 5599 ft 118 kts 238°
2026-05-04 04:59 57.71044 -152.58107 5843 ft 118 kts 237°
2026-05-04 04:59 57.70699 -152.59497 6086 ft 117 kts 237°
2026-05-04 04:59 57.70358 -152.60865 6338 ft 117 kts 236°
2026-05-04 04:59 57.70010 -152.62236 6591 ft 116 kts 236°
2026-05-04 05:00 57.69668 -152.63577 6841 ft 116 kts 236°
2026-05-04 05:00 57.69323 -152.64937 7099 ft 115 kts 236°
2026-05-04 05:00 57.68646 -152.67605 7592 ft 112 kts 236°
2026-05-04 05:01 57.68315 -152.68918 7844 ft 111 kts 235°
2026-05-04 05:01 57.67984 -152.70212 8102 ft 110 kts 235°
2026-05-04 05:01 57.67660 -152.71481 8349 ft 109 kts 235°
2026-05-04 05:01 57.67336 -152.72757 8598 ft 108 kts 234°
2026-05-04 05:02 57.67015 -152.74010 8836 ft 102 kts 235°
2026-05-04 05:02 57.66706 -152.75230 9107 ft 105 kts 234°
2026-05-04 05:02 57.66393 -152.76455 9323 ft 103 kts 234°
2026-05-04 05:02 57.66088 -152.77650 9575 ft 100 kts 234°
2026-05-04 05:03 57.65784 -152.78821 9838 ft 100 kts 234°
2026-05-04 05:03 57.65473 -152.80029 9930 ft 112 kts 234°
2026-05-04 05:04 57.64383 -152.84270 9905 ft 126 kts 236°
2026-05-04 05:04 57.64002 -152.85768 9912 ft 130 kts 237°
2026-05-04 05:04 57.63604 -152.87321 9908 ft 134 kts 237°
2026-05-04 05:06 57.60840 -152.98188 9902 ft 133 kts 237°
2026-05-04 05:06 57.60439 -152.99750 9941 ft 132 kts 237°
2026-05-04 05:06 57.60035 -153.01307 9974 ft 132 kts 236°
2026-05-04 05:07 57.59645 -153.02824 9983 ft 130 kts 236°
2026-05-04 05:07 57.59255 -153.04345 9984 ft 130 kts 236°
2026-05-04 05:07 57.58866 -153.05857 9995 ft 129 kts 237°
2026-05-04 05:09 57.55729 -153.17954 9996 ft 128 kts 236°
2026-05-04 05:09 57.55344 -153.19444 9998 ft 128 kts 236°
2026-05-04 05:10 57.54959 -153.20944 10006 ft 129 kts 236°
2026-05-04 05:10 57.54570 -153.22459 10002 ft 130 kts 237°
2026-05-04 05:10 57.54184 -153.23960 9999 ft 130 kts 236°
2026-05-04 05:10 57.53794 -153.25474 10001 ft 129 kts 236°
2026-05-04 05:11 57.53399 -153.26997 10007 ft 131 kts 236°
2026-05-04 05:11 57.53002 -153.28515 10001 ft 131 kts 236°
2026-05-04 05:11 57.52608 -153.30021 9998 ft 131 kts 236°
2026-05-04 05:11 57.52206 -153.31553 10000 ft 132 kts 236°
2026-05-04 05:12 57.51803 -153.33096 9992 ft 132 kts 236°
2026-05-04 05:12 57.51401 -153.34639 9995 ft 133 kts 236°
2026-05-04 05:12 57.50996 -153.36188 9991 ft 133 kts 236°
2026-05-04 05:12 57.50593 -153.37730 9988 ft 133 kts 236°
2026-05-04 05:13 57.50193 -153.39257 9989 ft 133 kts 236°
2026-05-04 05:13 57.49789 -153.40803 9986 ft 133 kts 237°
2026-05-04 05:13 57.49386 -153.42340 9977 ft 131 kts 237°
2026-05-04 05:13 57.48989 -153.43852 9981 ft 129 kts 236°
2026-05-04 05:14 57.48595 -153.45343 10002 ft 131 kts 236°
2026-05-04 05:14 57.48190 -153.46868 9990 ft 131 kts 236°
2026-05-04 05:14 57.47790 -153.48387 9987 ft 130 kts 235°
2026-05-04 05:14 57.47388 -153.49909 9996 ft 132 kts 236°
2026-05-04 05:15 57.46981 -153.51452 9997 ft 133 kts 236°
2026-05-04 05:15 57.46574 -153.53003 10011 ft 134 kts 236°
2026-05-04 05:15 57.46162 -153.54563 10000 ft 135 kts 236°
2026-05-04 05:15 57.45747 -153.56131 9993 ft 135 kts 236°
2026-05-04 05:16 57.45341 -153.57675 9982 ft 135 kts 237°
2026-05-04 05:16 57.44929 -153.59245 9940 ft 132 kts 237°
2026-05-04 05:16 57.44534 -153.60740 9975 ft 131 kts 236°
2026-05-04 05:16 57.44128 -153.62271 10000 ft 134 kts 236°
2026-05-04 05:17 57.43712 -153.63833 10005 ft 136 kts 236°
2026-05-04 05:17 57.43290 -153.65422 9988 ft 137 kts 237°
2026-05-04 05:17 57.42872 -153.67002 9975 ft 135 kts 236°
2026-05-04 05:17 57.42460 -153.68561 9972 ft 134 kts 236°
2026-05-04 05:18 57.42055 -153.70093 9961 ft 132 kts 236°
2026-05-04 05:18 57.41650 -153.71605 9990 ft 131 kts 236°
2026-05-04 05:18 57.41242 -153.73125 9997 ft 133 kts 236°
2026-05-04 05:18 57.40825 -153.74677 9996 ft 135 kts 236°
2026-05-04 05:19 57.40418 -153.76217 9994 ft 135 kts 236°
2026-05-04 05:19 57.39999 -153.77787 9993 ft 136 kts 236°
2026-05-04 05:19 57.39578 -153.79369 9986 ft 137 kts 236°
2026-05-04 05:19 57.39158 -153.80947 9973 ft 135 kts 237°
2026-05-04 05:20 57.38743 -153.82508 9973 ft 134 kts 236°
2026-05-04 05:20 57.38331 -153.84054 9968 ft 133 kts 236°
2026-05-04 05:20 57.37924 -153.85583 9970 ft 132 kts 236°
2026-05-04 05:20 57.37522 -153.87080 9975 ft 131 kts 236°
2026-05-04 05:21 57.37116 -153.88591 9977 ft 130 kts 236°
2026-05-04 05:21 57.36712 -153.90093 9973 ft 129 kts 236°
2026-05-04 05:21 57.36310 -153.91587 9972 ft 129 kts 236°
2026-05-04 05:21 57.35910 -153.93078 9987 ft 130 kts 236°
2026-05-04 05:22 57.35500 -153.94589 9996 ft 132 kts 236°
2026-05-04 05:22 57.35088 -153.96119 9998 ft 134 kts 236°
2026-05-04 05:22 57.34673 -153.97663 9978 ft 133 kts 236°
2026-05-04 05:22 57.34267 -153.99176 9974 ft 132 kts 236°
2026-05-04 05:23 57.33870 -154.00665 9937 ft 126 kts 236°
2026-05-04 05:23 57.33469 -154.02145 9967 ft 130 kts 236°
2026-05-04 05:23 57.33058 -154.03660 9973 ft 132 kts 236°
2026-05-04 05:23 57.32643 -154.05192 9975 ft 134 kts 236°
2026-05-04 05:24 57.32229 -154.06723 9986 ft 135 kts 236°
2026-05-04 05:24 57.31808 -154.08289 9984 ft 136 kts 236°
2026-05-04 05:24 57.31384 -154.09869 9981 ft 137 kts 236°